| time (UTC) | temp C | wind direction | speed KPH | gust KPH | rain 1hr cm | rain 24hr cm | rain mn cm | humidity % | barometer mb |
| 20260510153515 | 13 | 360 | 8.0 | 24.1 | 0.00 | 0.00 | 0.00 | 59 | 1016.3 |
| 20260510153038 | 12 | 360 | 6.4 | 24.1 | 0.00 | 0.00 | 0.00 | 61 | 1016.2 |
| 20260510152515 | 12 | 360 | 9.7 | 24.1 | 0.00 | 0.00 | 0.00 | 60 | 1016.3 |
| 20260510152013 | 12 | 360 | 9.7 | 20.9 | 0.00 | 0.00 | 0.00 | 59 | 1016.4 |
| 20260510151531 | 12 | 360 | 6.4 | 20.9 | 0.00 | 0.00 | 0.00 | 58 | 1016.2 |
| 20260510151015 | 12 | 360 | 4.8 | 20.9 | 0.00 | 0.00 | 0.00 | 60 | 1016.4 |
| 20260510150515 | 12 | 360 | 9.7 | 20.9 | 0.00 | 0.00 | 0.00 | 60 | 1016.4 |
| 20260510150030 | 12 | 360 | 11.3 | 22.5 | 0.00 | 0.00 | 0.00 | 61 | 1016.4 |
| 20260510145514 | 12 | 360 | 9.7 | 22.5 | 0.00 | 0.00 | 0.00 | 60 | 1016.4 |
| 20260510145014 | 13 | 360 | 11.3 | 22.5 | 0.00 | 0.00 | 0.00 | 59 | 1016.4 |
| 20260510144531 | 12 | 360 | 8.0 | 20.9 | 0.00 | 0.00 | 0.00 | 60 | 1016.4 |
| 20260510144014 | 12 | 360 | 8.0 | 20.9 | 0.00 | 0.00 | 0.00 | 61 | 1016.6 |
| 20260510143516 | 12 | 360 | 8.0 | 24.1 | 0.00 | 0.00 | 0.00 | 61 | 1016.6 |
| 20260510143036 | 12 | 360 | 12.9 | 24.1 | 0.00 | 0.00 | 0.00 | 61 | 1016.6 |
| 20260510142514 | 12 | 31 | 8.0 | 25.7 | 0.00 | 0.00 | 0.00 | 61 | 1016.7 |
| 20260510142016 | 12 | 9 | 8.0 | 25.7 | 0.00 | 0.00 | 0.00 | 61 | 1016.7 |
| 20260510141533 | 13 | 17 | 8.0 | 24.1 | 0.00 | 0.00 | 0.00 | 61 | 1016.7 |
| 20260510141014 | 13 | 35 | 9.7 | 24.1 | 0.00 | 0.00 | 0.00 | 61 | 1016.8 |
| 20260510140514 | 12 | 360 | 6.4 | 20.9 | 0.00 | 0.00 | 0.00 | 62 | 1016.8 |
| 20260510140029 | 12 | 360 | 6.4 | 20.9 | 0.00 | 0.00 | 0.00 | 63 | 1017.0 |
| 20260510135514 | 12 | 360 | 8.0 | 17.7 | 0.00 | 0.00 | 0.00 | 62 | 1017.0 |
| 20260510135013 | 12 | 360 | 6.4 | 20.9 | 0.00 | 0.00 | 0.00 | 62 | 1017.0 |
| 20260510134530 | 12 | 360 | 6.4 | 25.7 | 0.00 | 0.00 | 0.00 | 62 | 1016.8 |
| 20260510134012 | 12 | 360 | 8.0 | 25.7 | 0.00 | 0.00 | 0.00 | 62 | 1016.9 |
| 20260510133512 | 12 | 360 | 9.7 | 24.1 | 0.00 | 0.00 | 0.00 | 63 | 1017.0 |
| 20260510133038 | 12 | 360 | 9.7 | 24.1 | 0.00 | 0.00 | 0.00 | 64 | 1017.0 |
| 20260510132514 | 12 | 360 | 9.7 | 24.1 | 0.00 | 0.00 | 0.00 | 64 | 1017.1 |
| 20260510132010 | 12 | 360 | 11.3 | 24.1 | 0.00 | 0.00 | 0.00 | 65 | 1017.1 |
| 20260510131529 | 12 | 360 | 11.3 | 24.1 | 0.00 | 0.00 | 0.00 | 64 | 1017.1 |
| 20260510131015 | 12 | 360 | 6.4 | 17.7 | 0.00 | 0.00 | 0.00 | 65 | 1017.1 |
| 20260510130511 | 12 | 360 | 8.0 | 17.7 | 0.00 | 0.00 | 0.00 | 65 | 1017.1 |
| 20260510130031 | 12 | 360 | 8.0 | 17.7 | 0.00 | 0.00 | 0.00 | 65 | 1017.3 |
| 20260510125513 | 12 | 360 | 4.8 | 19.3 | 0.00 | 0.00 | 0.00 | 67 | 1017.3 |
| 20260510125011 | 11 | 360 | 8.0 | 20.9 | 0.00 | 0.00 | 0.00 | 67 | 1017.3 |
| 20260510124530 | 11 | 360 | 9.7 | 22.5 | 0.00 | 0.00 | 0.00 | 67 | 1017.4 |
| 20260510124016 | 11 | 360 | 8.0 | 22.5 | 0.00 | 0.00 | 0.00 | 67 | 1017.5 |
| 20260510123514 | 11 | 360 | 9.7 | 22.5 | 0.00 | 0.00 | 0.00 | 67 | 1017.5 |
| 20260510123032 | 11 | 360 | 8.0 | 20.9 | 0.00 | 0.00 | 0.00 | 67 | 1017.5 |
| 20260510122519 | 11 | 360 | 8.0 | 20.9 | 0.00 | 0.00 | 0.00 | 68 | 1017.7 |
| 20260510122011 | 11 | 360 | 11.3 | 22.5 | 0.00 | 0.00 | 0.00 | 68 | 1017.8 |
| 20260510121531 | 11 | 360 | 12.9 | 24.1 | 0.00 | 0.00 | 0.00 | 67 | 1017.8 |
| 20260510121011 | 12 | 360 | 9.7 | 24.1 | 0.00 | 0.00 | 0.00 | 67 | 1017.7 |
| 20260510120509 | 12 | 360 | 11.3 | 20.9 | 0.00 | 0.00 | 0.00 | 67 | 1017.8 |
| 20260510120033 | 12 | 360 | 9.7 | 19.3 | 0.00 | 0.00 | 0.00 | 67 | 1017.8 |
| 20260510115511 | 12 | 360 | 11.3 | 19.3 | 0.00 | 0.00 | 0.00 | 68 | 1017.8 |
| 20260510115011 | 12 | 360 | 9.7 | 27.4 | 0.00 | 0.00 | 0.00 | 68 | 1018.0 |
| 20260510114534 | 12 | 360 | 8.0 | 27.4 | 0.00 | 0.00 | 0.00 | 68 | 1017.9 |
| 20260510114010 | 12 | 360 | 11.3 | 20.9 | 0.00 | 0.00 | 0.00 | 68 | 1017.9 |
| 20260510113513 | 12 | 360 | 9.7 | 20.9 | 0.00 | 0.00 | 0.00 | 70 | 1018.0 |
| 20260510113038 | 12 | 360 | 8.0 | 20.9 | 0.00 | 0.00 | 0.00 | 71 | 1018.1 |
| 20260510112513 | 11 | 360 | 8.0 | 20.9 | 0.00 | 0.00 | 0.00 | 70 | 1018.1 |
| 20260510112011 | 11 | 360 | 6.4 | 14.5 | 0.00 | 0.00 | 0.00 | 72 | 1018.1 |
| 20260510111530 | 11 | 360 | 6.4 | 22.5 | 0.00 | 0.00 | 0.00 | 73 | 1018.2 |
| 20260510111011 | 11 | 360 | 8.0 | 22.5 | 0.00 | 0.00 | 0.00 | 74 | 1018.3 |
| 20260510110513 | 11 | 360 | 6.4 | 22.5 | 0.00 | 0.00 | 0.00 | 74 | 1018.3 |
| 20260510110029 | 11 | 360 | 6.4 | 22.5 | 0.00 | 0.00 | 0.00 | 73 | 1018.4 |
| 20260510105513 | 11 | 360 | 9.7 | 22.5 | 0.00 | 0.00 | 0.00 | 73 | 1018.5 |
| 20260510105015 | 11 | 360 | 6.4 | 22.5 | 0.00 | 0.00 | 0.00 | 73 | 1018.4 |
| 20260510104531 | 11 | 360 | 9.7 | 22.5 | 0.00 | 0.00 | 0.00 | 73 | 1018.5 |
| 20260510104013 | 11 | 360 | 8.0 | 20.9 | 0.00 | 0.00 | 0.00 | 72 | 1018.5 |
| 20260510103515 | 12 | 360 | 8.0 | 24.1 | 0.00 | 0.00 | 0.00 | 72 | 1018.4 |
| 20260510103029 | 12 | 360 | 8.0 | 24.1 | 0.00 | 0.00 | 0.00 | 71 | 1018.4 |
| 20260510102512 | 12 | 360 | 9.7 | 22.5 | 0.00 | 0.00 | 0.00 | 72 | 1018.5 |
| 20260510102012 | 12 | 360 | 9.7 | 22.5 | 0.00 | 0.00 | 0.00 | 73 | 1018.5 |
| 20260510101530 | 11 | 360 | 9.7 | 24.1 | 0.00 | 0.00 | 0.00 | 74 | 1018.4 |
| 20260510101013 | 11 | 360 | 11.3 | 25.7 | 0.00 | 0.00 | 0.00 | 74 | 1018.5 |
| 20260510100517 | 11 | 360 | 11.3 | 25.7 | 0.00 | 0.00 | 0.00 | 74 | 1018.5 |
| 20260510100030 | 11 | 360 | 11.3 | 25.7 | 0.00 | 0.00 | 0.00 | 74 | 1018.5 |
| 20260510095511 | 11 | 360 | 6.4 | 19.3 | 0.00 | 0.00 | 0.00 | 73 | 1018.6 |
| 20260510095012 | 12 | 360 | 9.7 | 22.5 | 0.00 | 0.00 | 0.00 | 73 | 1018.5 |
| 20260510094531 | 12 | 360 | 6.4 | 22.5 | 0.00 | 0.00 | 0.00 | 73 | 1018.4 |
| 20260510094012 | 11 | 360 | 8.0 | 27.4 | 0.00 | 0.00 | 0.00 | 74 | 1018.6 |
| 20260510093512 | 11 | 360 | 9.7 | 27.4 | 0.00 | 0.00 | 0.00 | 74 | 1018.6 |
| 20260510093032 | 11 | 360 | 6.4 | 19.3 | 0.00 | 0.00 | 0.00 | 76 | 1018.7 |
| 20260510092517 | 11 | 360 | 6.4 | 20.9 | 0.00 | 0.00 | 0.00 | 77 | 1018.8 |
| 20260510092015 | 11 | 360 | 8.0 | 22.5 | 0.00 | 0.00 | 0.00 | 77 | 1018.8 |
| 20260510091529 | 11 | 360 | 8.0 | 22.5 | 0.00 | 0.00 | 0.00 | 76 | 1018.9 |
| 20260510091014 | 11 | 360 | 6.4 | 17.7 | 0.00 | 0.00 | 0.00 | 76 | 1019.0 |
| 20260510090517 | 11 | 360 | 4.8 | 17.7 | 0.00 | 0.00 | 0.00 | 76 | 1019.1 |
| 20260510090032 | 11 | 360 | 4.8 | 17.7 | 0.00 | 0.00 | 0.00 | 76 | 1019.0 |
| 20260510085512 | 11 | 360 | 3.2 | 22.5 | 0.00 | 0.00 | 0.00 | 76 | 1018.9 |
| 20260510085014 | 11 | 360 | 4.8 | 22.5 | 0.00 | 0.00 | 0.00 | 76 | 1018.9 |
| 20260510084533 | 11 | 360 | 6.4 | 22.5 | 0.00 | 0.00 | 0.00 | 76 | 1018.9 |
| 20260510084016 | 11 | 360 | 6.4 | 20.9 | 0.00 | 0.00 | 0.00 | 77 | 1019.1 |
| 20260510083515 | 11 | 360 | 8.0 | 20.9 | 0.00 | 0.00 | 0.00 | 77 | 1019.0 |
| 20260510083029 | 11 | 360 | 11.3 | 20.9 | 0.00 | 0.00 | 0.00 | 76 | 1019.1 |
| 20260510082513 | 11 | 360 | 6.4 | 17.7 | 0.00 | 0.00 | 0.00 | 77 | 1019.1 |
| 20260510082015 | 11 | 360 | 6.4 | 20.9 | 0.00 | 0.00 | 0.00 | 78 | 1019.1 |
| 20260510081539 | 11 | 360 | 8.0 | 20.9 | 0.00 | 0.00 | 0.00 | 78 | 1019.1 |
| 20260510081014 | 10 | 360 | 9.7 | 20.9 | 0.00 | 0.00 | 0.00 | 78 | 1019.1 |
| 20260510080515 | 11 | 360 | 8.0 | 22.5 | 0.00 | 0.00 | 0.00 | 78 | 1019.0 |
| 20260510080029 | 11 | 360 | 9.7 | 22.5 | 0.00 | 0.00 | 0.00 | 78 | 1019.2 |
| 20260510075513 | 11 | 360 | 8.0 | 20.9 | 0.00 | 0.00 | 0.00 | 79 | 1019.1 |
| 20260510075013 | 11 | 360 | 9.7 | 20.9 | 0.00 | 0.00 | 0.00 | 79 | 1018.9 |
| 20260510074530 | 10 | 360 | 9.7 | 20.9 | 0.00 | 0.00 | 0.00 | 80 | 1018.9 |
| 20260510074016 | 10 | 360 | 9.7 | 20.9 | 0.00 | 0.00 | 0.00 | 80 | 1019.1 |
| 20260510073513 | 10 | 360 | 6.4 | 22.5 | 0.00 | 0.00 | 0.00 | 81 | 1019.1 |
| 20260510073034 | 10 | 360 | 6.4 | 22.5 | 0.00 | 0.00 | 0.00 | 81 | 1019.1 |
| 20260510072513 | 10 | 360 | 8.0 | 22.5 | 0.00 | 0.00 | 0.00 | 82 | 1019.2 |
| 20260510072016 | 10 | 360 | 8.0 | 19.3 | 0.00 | 0.00 | 0.00 | 82 | 1019.1 |
| 20260510071531 | 10 | 360 | 6.4 | 24.1 | 0.00 | 0.00 | 0.00 | 83 | 1019.1 |
| 20260510071013 | 10 | 360 | 9.7 | 24.1 | 0.00 | 0.00 | 0.00 | 83 | 1018.9 |
| 20260510070514 | 10 | 360 | 8.0 | 22.5 | 0.00 | 0.00 | 0.00 | 85 | 1018.9 |
| 20260510070031 | 10 | 360 | 9.7 | 22.5 | 0.00 | 0.00 | 0.00 | 85 | 1018.9 |
| 20260510065514 | 10 | 360 | 8.0 | 19.3 | 0.00 | 0.00 | 0.00 | 85 | 1018.8 |
| 20260510065014 | 10 | 360 | 8.0 | 20.9 | 0.00 | 0.00 | 0.00 | 86 | 1018.8 |
| 20260510064540 | 10 | 360 | 9.7 | 20.9 | 0.00 | 0.00 | 0.00 | 86 | 1018.8 |
| 20260510064013 | 10 | 360 | 9.7 | 24.1 | 0.00 | 0.00 | 0.00 | 86 | 1018.8 |
| 20260510063512 | 10 | 360 | 11.3 | 24.1 | 0.00 | 0.00 | 0.00 | 86 | 1018.8 |
| 20260510063038 | 9 | 360 | 11.3 | 24.1 | 0.00 | 0.00 | 0.00 | 87 | 1018.7 |
| 20260510062514 | 9 | 360 | 9.7 | 22.5 | 0.00 | 0.00 | 0.00 | 87 | 1018.8 |
| 20260510062013 | 9 | 360 | 8.0 | 24.1 | 0.00 | 0.00 | 0.00 | 88 | 1018.8 |
| 20260510061530 | 9 | 360 | 8.0 | 24.1 | 0.00 | 0.00 | 0.00 | 88 | 1018.7 |
| 20260510061011 | 9 | 360 | 9.7 | 20.9 | 0.00 | 0.00 | 0.00 | 88 | 1018.7 |
| 20260510060512 | 9 | 360 | 9.7 | 19.3 | 0.00 | 0.00 | 0.00 | 89 | 1018.7 |
| 20260510060030 | 9 | 360 | 11.3 | 19.3 | 0.00 | 0.00 | 0.00 | 89 | 1018.7 |
| 20260510055515 | 8 | 360 | 8.0 | 17.7 | 0.00 | 0.00 | 0.00 | 89 | 1018.6 |
| 20260510055014 | 8 | 360 | 6.4 | 17.7 | 0.00 | 0.00 | 0.00 | 89 | 1018.8 |
| 20260510054530 | 8 | 360 | 6.4 | 16.1 | 0.00 | 0.00 | 0.00 | 89 | 1018.7 |
| 20260510054014 | 8 | 360 | 6.4 | 16.1 | 0.00 | 0.00 | 0.00 | 90 | 1018.6 |
| 20260510053514 | 8 | 360 | 6.4 | 14.5 | 0.00 | 0.00 | 0.00 | 90 | 1018.7 |
| 20260510053030 | 8 | 360 | 4.8 | 16.1 | 0.00 | 0.00 | 0.00 | 90 | 1018.7 |
| 20260510052512 | 8 | 360 | 6.4 | 16.1 | 0.00 | 0.00 | 0.00 | 90 | 1018.6 |
| 20260510052012 | 8 | 360 | 8.0 | 14.5 | 0.00 | 0.00 | 0.00 | 90 | 1018.7 |
| 20260510051532 | 8 | 360 | 4.8 | 12.9 | 0.00 | 0.00 | 0.00 | 90 | 1018.8 |
| 20260510051013 | 8 | 360 | 6.4 | 12.9 | 0.00 | 0.00 | 0.00 | 90 | 1018.7 |
| 20260510050512 | 8 | 360 | 6.4 | 14.5 | 0.00 | 0.00 | 0.00 | 90 | 1018.8 |
| 20260510050030 | 8 | 360 | 4.8 | 14.5 | 0.00 | 0.00 | 0.00 | 90 | 1018.9 |
| 20260510045513 | 8 | 360 | 4.8 | 12.9 | 0.00 | 0.00 | 0.00 | 90 | 1018.8 |
| 20260510045015 | 8 | 360 | 3.2 | 12.9 | 0.00 | 0.00 | 0.00 | 90 | 1018.7 |
| 20260510044544 | 8 | 360 | 4.8 | 9.7 | 0.00 | 0.00 | 0.00 | 90 | 1018.7 |
| 20260510044015 | 8 | 360 | 4.8 | 12.9 | 0.00 | 0.00 | 0.00 | 90 | 1018.7 |
| 20260510043514 | 8 | 360 | 4.8 | 12.9 | 0.00 | 0.00 | 0.00 | 90 | 1018.6 |
| 20260510043035 | 8 | 360 | 6.4 | 12.9 | 0.00 | 0.00 | 0.00 | 90 | 1018.6 |
| 20260510042512 | 8 | 360 | 6.4 | 12.9 | 0.00 | 0.00 | 0.00 | 90 | 1018.6 |
| 20260510042013 | 8 | 360 | 3.2 | 12.9 | 0.00 | 0.00 | 0.00 | 89 | 1018.6 |
| 20260510041532 | 8 | 360 | 4.8 | 12.9 | 0.00 | 0.00 | 0.00 | 89 | 1018.5 |
| 20260510041013 | 8 | 360 | 3.2 | 12.9 | 0.00 | 0.00 | 0.00 | 89 | 1018.6 |
| 20260510040513 | 8 | 360 | 4.8 | 9.7 | 0.00 | 0.00 | 0.00 | 89 | 1018.6 |
| 20260510040031 | 8 | 360 | 3.2 | 9.7 | 0.00 | 0.00 | 0.00 | 89 | 1018.7 |
| 20260510035513 | 8 | 360 | 4.8 | 14.5 | 0.00 | 0.00 | 0.00 | 89 | 1018.6 |
| 20260510035018 | 8 | 360 | 6.4 | 14.5 | 0.00 | 0.00 | 0.00 | 89 | 1018.7 |
| 20260510034536 | 8 | 360 | 8.0 | 14.5 | 0.00 | 0.00 | 0.00 | 88 | 1018.8 |
| 20260510034014 | 8 | 360 | 6.4 | 14.5 | 0.00 | 0.00 | 0.00 | 88 | 1018.8 |
| 20260510033514 | 8 | 360 | 6.4 | 14.5 | 0.00 | 0.00 | 0.00 | 88 | 1018.9 |
| 20260510033031 | 8 | 360 | 4.8 | 14.5 | 0.00 | 0.00 | 0.00 | 88 | 1018.9 |
| 20260510032512 | 8 | 360 | 4.8 | 9.7 | 0.00 | 0.00 | 0.00 | 88 | 1019.0 |
| 20260510032015 | 8 | 360 | 4.8 | 9.7 | 0.00 | 0.00 | 0.00 | 88 | 1019.1 |
| 20260510031532 | 8 | 360 | 4.8 | 14.5 | 0.00 | 0.00 | 0.00 | 87 | 1019.1 |
| 20260510031013 | 8 | 360 | 6.4 | 16.1 | 0.00 | 0.00 | 0.00 | 87 | 1018.9 |
| 20260510030517 | 8 | 360 | 8.0 | 19.3 | 0.00 | 0.00 | 0.00 | 87 | 1018.9 |
| 20260510030030 | 9 | 360 | 9.7 | 19.3 | 0.00 | 0.00 | 0.00 | 87 | 1018.9 |
| 20260510025513 | 9 | 360 | 9.7 | 22.5 | 0.00 | 0.00 | 0.00 | 87 | 1018.9 |
| 20260510025014 | 9 | 360 | 9.7 | 24.1 | 0.00 | 0.00 | 0.00 | 87 | 1019.0 |
| 20260510024531 | 9 | 360 | 9.7 | 24.1 | 0.00 | 0.00 | 0.00 | 87 | 1018.9 |
| 20260510024014 | 9 | 360 | 9.7 | 19.3 | 0.00 | 0.00 | 0.00 | 87 | 1018.9 |
| 20260510023514 | 9 | 360 | 9.7 | 19.3 | 0.00 | 0.00 | 0.00 | 87 | 1019.0 |
| 20260510023032 | 9 | 360 | 8.0 | 19.3 | 0.00 | 0.00 | 0.00 | 87 | 1019.0 |
| 20260510022513 | 9 | 360 | 4.8 | 17.7 | 0.00 | 0.00 | 0.00 | 87 | 1019.0 |
| 20260510022012 | 9 | 360 | 8.0 | 17.7 | 0.00 | 0.00 | 0.00 | 87 | 1019.2 |
| 20260510021536 | 9 | 360 | 6.4 | 17.7 | 0.00 | 0.00 | 0.00 | 87 | 1019.2 |
| 20260510021015 | 9 | 360 | 6.4 | 16.1 | 0.00 | 0.00 | 0.00 | 87 | 1019.2 |
| 20260510020514 | 9 | 360 | 8.0 | 14.5 | 0.00 | 0.00 | 0.00 | 87 | 1019.2 |
| 20260510020030 | 9 | 360 | 6.4 | 16.1 | 0.00 | 0.00 | 0.00 | 87 | 1019.1 |
| 20260510015513 | 9 | 360 | 6.4 | 16.1 | 0.00 | 0.00 | 0.00 | 87 | 1019.2 |
| 20260510015015 | 9 | 360 | 8.0 | 17.7 | 0.00 | 0.00 | 0.00 | 87 | 1019.1 |
| 20260510014532 | 9 | 360 | 8.0 | 17.7 | 0.00 | 0.00 | 0.00 | 87 | 1019.1 |
| 20260510014013 | 9 | 360 | 6.4 | 17.7 | 0.00 | 0.00 | 0.00 | 87 | 1019.0 |
| 20260510013515 | 9 | 360 | 6.4 | 17.7 | 0.00 | 0.00 | 0.00 | 87 | 1019.1 |
| 20260510013029 | 9 | 360 | 8.0 | 20.9 | 0.00 | 0.00 | 0.00 | 87 | 1018.9 |
| 20260510012515 | 9 | 360 | 6.4 | 20.9 | 0.00 | 0.00 | 0.00 | 87 | 1019.0 |
| 20260510012014 | 9 | 360 | 8.0 | 20.9 | 0.00 | 0.00 | 0.00 | 88 | 1018.9 |
| 20260510011531 | 9 | 360 | 11.3 | 20.9 | 0.00 | 0.00 | 0.00 | 88 | 1019.0 |
| 20260510011013 | 9 | 360 | 8.0 | 17.7 | 0.00 | 0.00 | 0.00 | 88 | 1019.1 |
| 20260510010514 | 9 | 360 | 6.4 | 16.1 | 0.00 | 0.00 | 0.00 | 88 | 1019.0 |
| 20260510010031 | 9 | 360 | 6.4 | 14.5 | 0.00 | 0.00 | 0.00 | 87 | 1019.1 |
| 20260510005512 | 9 | 360 | 6.4 | 16.1 | 0.00 | 0.00 | 0.00 | 87 | 1019.2 |
| 20260510005012 | 9 | 360 | 6.4 | 17.7 | 0.00 | 0.00 | 0.00 | 87 | 1019.3 |
| 20260510004531 | 9 | 360 | 6.4 | 17.7 | 0.00 | 0.00 | 0.00 | 87 | 1019.3 |
| 20260510004014 | 8 | 360 | 6.4 | 17.7 | 0.00 | 0.00 | 0.00 | 87 | 1019.2 |
| 20260510003514 | 8 | 360 | 4.8 | 14.5 | 0.00 | 0.00 | 0.00 | 86 | 1019.3 |
| 20260510003031 | 8 | 360 | 6.4 | 14.5 | 0.00 | 0.00 | 0.00 | 85 | 1019.2 |
| 20260510002511 | 8 | 360 | 4.8 | 12.9 | 0.00 | 0.00 | 0.00 | 85 | 1019.3 |
| 20260510002013 | 8 | 360 | 4.8 | 9.7 | 0.00 | 0.00 | 0.00 | 84 | 1019.4 |
| 20260510001532 | 8 | 360 | 3.2 | 8.0 | 0.00 | 0.00 | 0.00 | 83 | 1019.5 |
| 20260510001015 | 8 | 360 | 3.2 | 8.0 | 0.00 | 0.00 | 0.00 | 82 | 1019.5 |
| 20260510000514 | 8 | 360 | 3.2 | 8.0 | 0.00 | 0.00 | 0.00 | 82 | 1019.4 |
| 20260510000029 | 8 | 360 | 4.8 | 8.0 | 0.00 | 0.00 | 0.00 | 81 | 1019.4 |
| 20260509235512 | 8 | 360 | 3.2 | 9.7 | 0.00 | 0.00 | 0.00 | 81 | 1019.5 |
| 20260509235012 | 8 | 360 | 3.2 | 12.9 | 0.00 | 0.00 | 0.00 | 82 | 1019.5 |
| 20260509234535 | 8 | 360 | 3.2 | 12.9 | 0.00 | 0.00 | 0.00 | 82 | 1019.5 |
| 20260509234014 | 8 | 360 | 3.2 | 8.0 | 0.00 | 0.00 | 0.00 | 83 | 1019.5 |
| 20260509233512 | 8 | 360 | 3.2 | 8.0 | 0.00 | 0.00 | 0.00 | 83 | 1019.5 |
| 20260509233030 | 8 | 360 | 4.8 | 8.0 | 0.00 | 0.00 | 0.00 | 82 | 1019.5 |
| 20260509232514 | 8 | 360 | 4.8 | 6.4 | 0.00 | 0.00 | 0.00 | 81 | 1019.4 |
| 20260509232014 | 8 | 360 | 3.2 | 8.0 | 0.00 | 0.00 | 0.00 | 81 | 1019.4 |
| 20260509231531 | 8 | 360 | 3.2 | 8.0 | 0.00 | 0.00 | 0.00 | 80 | 1019.6 |
| 20260509231011 | 8 | 360 | 3.2 | 6.4 | 0.00 | 0.00 | 0.00 | 79 | 1019.6 |
| 20260509230514 | 8 | 360 | 3.2 | 6.4 | 0.00 | 0.00 | 0.00 | 78 | 1019.6 |
| 20260509230032 | 8 | 360 | 3.2 | 6.4 | 0.00 | 0.00 | 0.00 | 77 | 1019.5 |
| 20260509225514 | 8 | 360 | 3.2 | 6.4 | 0.00 | 0.00 | 0.00 | 76 | 1019.6 |
| 20260509225012 | 8 | 0 | 0.0 | 0.0 | 0.00 | 0.00 | 0.00 | 75 | 1019.6 |
| 20260509224532 | 8 | 0 | 0.0 | 3.2 | 0.00 | 0.00 | 0.00 | 75 | 1019.7 |
| 20260509224014 | 9 | 0 | 0.0 | 3.2 | 0.00 | 0.00 | 0.00 | 75 | 1019.7 |
| 20260509223511 | 9 | 360 | 0.0 | 4.8 | 0.00 | 0.00 | 0.00 | 74 | 1019.7 |
| 20260509223031 | 9 | 0 | 0.0 | 6.4 | 0.00 | 0.00 | 0.00 | 74 | 1019.6 |
| 20260509222514 | 9 | 360 | 1.6 | 6.4 | 0.00 | 0.00 | 0.00 | 74 | 1019.6 |
| 20260509222014 | 10 | 360 | 1.6 | 6.4 | 0.00 | 0.00 | 0.00 | 73 | 1019.4 |
| 20260509221532 | 10 | 360 | 1.6 | 6.4 | 0.00 | 0.00 | 0.00 | 73 | 1019.4 |
| 20260509221014 | 10 | 360 | 1.6 | 8.0 | 0.00 | 0.00 | 0.00 | 73 | 1019.2 |
| 20260509220511 | 10 | 360 | 3.2 | 8.0 | 0.00 | 0.00 | 0.00 | 73 | 1019.4 |
| 20260509220053 | 10 | 360 | 4.8 | 6.4 | 0.00 | 0.00 | 0.00 | 73 | 1019.3 |
| 20260509215514 | 10 | 360 | 3.2 | 6.4 | 0.00 | 0.00 | 0.00 | 72 | 1019.1 |
| 20260509215014 | 10 | 360 | 3.2 | 6.4 | 0.00 | 0.00 | 0.00 | 72 | 1019.0 |
| 20260509214532 | 10 | 360 | 3.2 | 6.4 | 0.00 | 0.00 | 0.00 | 71 | 1019.1 |
| 20260509214011 | 10 | 360 | 3.2 | 6.4 | 0.00 | 0.00 | 0.00 | 70 | 1018.9 |
| 20260509213511 | 10 | 360 | 3.2 | 6.4 | 0.00 | 0.00 | 0.00 | 69 | 1018.9 |
| 20260509213030 | 10 | 360 | 3.2 | 4.8 | 0.00 | 0.00 | 0.00 | 68 | 1019.0 |
| 20260509212512 | 10 | 360 | 1.6 | 4.8 | 0.00 | 0.00 | 0.00 | 68 | 1019.1 |
| 20260509212011 | 10 | 360 | 3.2 | 4.8 | 0.00 | 0.00 | 0.00 | 67 | 1018.9 |
| 20260509211530 | 10 | 360 | 1.6 | 4.8 | 0.00 | 0.00 | 0.00 | 66 | 1019.0 |
| 20260509211012 | 10 | 360 | 1.6 | 4.8 | 0.00 | 0.00 | 0.00 | 65 | 1019.0 |
| 20260509210513 | 11 | 360 | 1.6 | 4.8 | 0.00 | 0.00 | 0.00 | 65 | 1018.9 |
| 20260509210032 | 11 | 360 | 1.6 | 4.8 | 0.00 | 0.00 | 0.00 | 64 | 1018.9 |
| 20260509205511 | 11 | 360 | 1.6 | 4.8 | 0.00 | 0.00 | 0.00 | 63 | 1018.8 |
| 20260509205014 | 11 | 360 | 1.6 | 4.8 | 0.00 | 0.00 | 0.00 | 63 | 1018.8 |
| 20260509204528 | 11 | 360 | 1.6 | 6.4 | 0.00 | 0.00 | 0.00 | 62 | 1018.8 |
| 20260509204014 | 11 | 360 | 3.2 | 6.4 | 0.00 | 0.00 | 0.00 | 62 | 1018.7 |
| 20260509203513 | 11 | 360 | 3.2 | 6.4 | 0.00 | 0.00 | 0.00 | 61 | 1018.6 |
| 20260509203030 | 12 | 360 | 3.2 | 6.4 | 0.00 | 0.00 | 0.00 | 60 | 1018.6 |
| 20260509202512 | 12 | 360 | 3.2 | 8.0 | 0.00 | 0.00 | 0.00 | 59 | 1018.6 |
| 20260509202019 | 12 | 360 | 3.2 | 9.7 | 0.00 | 0.00 | 0.00 | 59 | 1018.5 |
| 20260509201529 | 12 | 360 | 3.2 | 9.7 | 0.00 | 0.00 | 0.00 | 58 | 1018.4 |
| 20260509201013 | 12 | 360 | 3.2 | 8.0 | 0.00 | 0.00 | 0.00 | 58 | 1018.4 |
| 20260509200512 | 12 | 360 | 3.2 | 8.0 | 0.00 | 0.00 | 0.00 | 57 | 1018.5 |
| 20260509200032 | 12 | 360 | 3.2 | 6.4 | 0.00 | 0.00 | 0.00 | 56 | 1018.4 |
| 20260509195516 | 13 | 360 | 1.6 | 4.8 | 0.00 | 0.00 | 0.00 | 55 | 1018.5 |
| 20260509195015 | 13 | 360 | 1.6 | 4.8 | 0.00 | 0.00 | 0.00 | 54 | 1018.4 |
| 20260509194530 | 13 | 360 | 1.6 | 6.4 | 0.00 | 0.00 | 0.00 | 53 | 1018.4 |
| 20260509194013 | 13 | 360 | 1.6 | 6.4 | 0.00 | 0.00 | 0.00 | 52 | 1018.5 |
| 20260509193513 | 14 | 360 | 1.6 | 8.0 | 0.00 | 0.00 | 0.00 | 51 | 1018.5 |
| 20260509193032 | 14 | 360 | 1.6 | 8.0 | 0.00 | 0.00 | 0.00 | 50 | 1018.4 |
| 20260509192513 | 15 | 360 | 1.6 | 9.7 | 0.00 | 0.00 | 0.00 | 50 | 1018.3 |
| 20260509192010 | 15 | 360 | 3.2 | 12.9 | 0.00 | 0.00 | 0.00 | 49 | 1018.2 |
| 20260509191531 | 15 | 360 | 1.6 | 12.9 | 0.00 | 0.00 | 0.00 | 48 | 1018.3 |
| 20260509191012 | 15 | 360 | 3.2 | 12.9 | 0.00 | 0.00 | 0.00 | 48 | 1018.1 |
| 20260509190511 | 15 | 360 | 3.2 | 14.5 | 0.00 | 0.00 | 0.00 | 47 | 1018.0 |
| 20260509190031 | 15 | 360 | 1.6 | 14.5 | 0.00 | 0.00 | 0.00 | 47 | 1018.0 |
| 20260509185512 | 16 | 77 | 4.8 | 14.5 | 0.00 | 0.00 | 0.00 | 46 | 1018.0 |
| 20260509185012 | 16 | 86 | 4.8 | 14.5 | 0.00 | 0.00 | 0.00 | 46 | 1018.0 |
| 20260509184529 | 16 | 5 | 4.8 | 14.5 | 0.00 | 0.00 | 0.00 | 45 | 1018.0 |
| 20260509184011 | 16 | 21 | 4.8 | 20.9 | 0.00 | 0.00 | 0.00 | 44 | 1018.0 |
| 20260509183512 | 17 | 89 | 4.8 | 20.9 | 0.00 | 0.00 | 0.00 | 44 | 1017.9 |
| 20260509183032 | 17 | 61 | 8.0 | 20.9 | 0.00 | 0.00 | 0.00 | 43 | 1017.8 |
| 20260509182512 | 17 | 65 | 1.6 | 17.7 | 0.00 | 0.00 | 0.00 | 44 | 1017.8 |
| 20260509182013 | 17 | 51 | 4.8 | 19.3 | 0.00 | 0.00 | 0.00 | 43 | 1017.8 |
| 20260509181534 | 17 | 29 | 6.4 | 19.3 | 0.00 | 0.00 | 0.00 | 43 | 1017.6 |
| 20260509181019 | 17 | 40 | 8.0 | 17.7 | 0.00 | 0.00 | 0.00 | 42 | 1017.6 |
| 20260509180511 | 17 | 79 | 6.4 | 17.7 | 0.00 | 0.00 | 0.00 | 43 | 1017.7 |
| 20260509180029 | 17 | 75 | 4.8 | 16.1 | 0.00 | 0.00 | 0.00 | 44 | 1017.6 |
| 20260509175512 | 17 | 78 | 4.8 | 16.1 | 0.00 | 0.00 | 0.00 | 44 | 1017.6 |
| 20260509175014 | 17 | 86 | 4.8 | 16.1 | 0.00 | 0.00 | 0.00 | 44 | 1017.5 |
| 20260509174531 | 17 | 94 | 6.4 | 16.1 | 0.00 | 0.00 | 0.00 | 43 | 1017.6 |
| 20260509174015 | 17 | 51 | 3.2 | 16.1 | 0.00 | 0.00 | 0.00 | 43 | 1017.5 |
| 20260509173511 | 17 | 61 | 4.8 | 17.7 | 0.00 | 0.00 | 0.00 | 42 | 1017.5 |
| 20260509173031 | 18 | 77 | 4.8 | 17.7 | 0.00 | 0.00 | 0.00 | 41 | 1017.7 |
| 20260509172516 | 18 | 71 | 3.2 | 14.5 | 0.00 | 0.00 | 0.00 | 42 | 1017.6 |
| 20260509172014 | 18 | 86 | 6.4 | 14.5 | 0.00 | 0.00 | 0.00 | 41 | 1017.6 |
| 20260509171538 | 18 | 150 | 4.8 | 14.5 | 0.00 | 0.00 | 0.00 | 40 | 1017.8 |
| 20260509171011 | 18 | 113 | 3.2 | 14.5 | 0.00 | 0.00 | 0.00 | 40 | 1017.8 |
| 20260509170512 | 18 | 122 | 4.8 | 14.5 | 0.00 | 0.00 | 0.00 | 40 | 1017.8 |
| 20260509170032 | 18 | 136 | 3.2 | 16.1 | 0.00 | 0.00 | 0.00 | 40 | 1017.7 |
| 20260509165513 | 18 | 112 | 8.0 | 16.1 | 0.00 | 0.00 | 0.00 | 39 | 1017.8 |
| 20260509165013 | 18 | 126 | 3.2 | 14.5 | 0.00 | 0.00 | 0.00 | 40 | 1017.7 |
| 20260509164531 | 18 | 109 | 6.4 | 17.7 | 0.00 | 0.00 | 0.00 | 39 | 1017.8 |
| 20260509164014 | 18 | 128 | 4.8 | 17.7 | 0.00 | 0.00 | 0.00 | 39 | 1017.8 |
| 20260509163515 | 18 | 123 | 6.4 | 16.1 | 0.00 | 0.00 | 0.00 | 39 | 1017.7 |
| 20260509163030 | 18 | 118 | 4.8 | 12.9 | 0.00 | 0.00 | 0.00 | 39 | 1017.8 |
| 20260509162511 | 18 | 127 | 6.4 | 17.7 | 0.00 | 0.00 | 0.00 | 39 | 1017.8 |
| 20260509162014 | 18 | 118 | 4.8 | 17.7 | 0.00 | 0.00 | 0.00 | 38 | 1017.8 |
| 20260509161530 | 18 | 103 | 9.7 | 17.7 | 0.00 | 0.00 | 0.00 | 38 | 1017.8 |
| 20260509161014 | 19 | 108 | 3.2 | 19.3 | 0.00 | 0.00 | 0.00 | 39 | 1017.9 |
| 20260509160514 | 19 | 131 | 8.0 | 19.3 | 0.00 | 0.00 | 0.00 | 38 | 1017.9 |
| 20260509160030 | 19 | 84 | 4.8 | 17.7 | 0.00 | 0.00 | 0.00 | 38 | 1017.8 |
| 20260509155513 | 20 | 105 | 4.8 | 17.7 | 0.00 | 0.00 | 0.00 | 38 | 1017.8 |
| 20260509155014 | 20 | 145 | 6.4 | 20.9 | 0.00 | 0.00 | 0.00 | 38 | 1017.8 |
| 20260509154529 | 20 | 98 | 6.4 | 20.9 | 0.00 | 0.00 | 0.00 | 37 | 1017.8 |
| 20260509154013 | 20 | 103 | 6.4 | 17.7 | 0.00 | 0.00 | 0.00 | 38 | 1017.7 |